W6MAF Weather Reports


Display with metric or nautical units.
time (UTC)temp
F
wind
direction
speed
MPH
gust
MPH
rain 1hr
in
rain 24hr
in
rain mn
in
humidity
%
barometer
mb
20260502192904 78 205 1.0 0.0 0.00 0.00 0.00 5
20260502192403 77 190 3.0 0.0 0.00 0.00 0.00 5
20260502191905 77 166 5.0 6.0 0.00 0.00 0.00 5
20260502191408 77 160 7.0 0.0 0.00 0.00 0.00 5
20260502190910 77 201 2.0 8.0 0.00 0.00 0.00 5
20260502190412 77 162 7.0 0.0 0.00 0.00 0.00 5
20260502185915 77 184 14.0 16.0 0.00 0.00 0.00 5
20260502185414 77 172 0.0 9.0 0.00 0.00 0.00 5
20260502184418 77 160 1.0 7.0 0.00 0.00 0.00 5
20260502183920 77 195 8.0 0.0 0.00 0.00 0.00 5
20260502183423 77 139 3.0 0.0 0.00 0.00 0.00 5
20260502182424 77 125 9.0 5.0 0.00 0.00 0.00 5
20260502181926 77 158 8.0 8.0 0.00 0.00 0.00 5
20260502181429 77 162 7.0 14.0 0.00 0.00 0.00 5
20260502180931 77 186 7.0 14.0 0.00 0.00 0.00 5
20260502180433 77 172 7.0 0.0 0.00 0.00 0.00 5
20260502170455 76 135 0.0 0.0 0.00 0.00 0.00 5
20260502164003 77 235 0.0 0.0 0.00 0.00 0.00 5
20260502163505 77 235 0.0 0.0 0.00 0.00 0.00 5
20260502163008 76 235 0.0 0.0 0.00 0.00 0.00 5
20260502162507 76 235 0.0 0.0 0.00 0.00 0.00 5
20260502162009 75 235 0.0 0.0 0.00 0.00 0.00 5
20260502161512 75 235 0.0 0.0 0.00 0.00 0.00 6
20260502161014 75 235 0.0 0.0 0.00 0.00 0.00 6
20260502160516 74 235 0.0 0.0 0.00 0.00 0.00 5
20260502152031 71 235 0.0 0.0 0.00 0.00 0.00 8
20260502151533 70 235 0.0 0.0 0.00 0.00 0.00 10
20260502151036 69 235 0.0 0.0 0.00 0.00 0.00 12
20260502150713 68 235 0.0 0.0 0.00 0.00 0.00 12
20260502150538 68 235 0.0 0.0 0.00 0.00 0.00 12
20260502130122 52 235 0.0 0.0 0.00 0.00 0.00 31
20260502123631 53 235 0.0 0.0 0.00 0.00 0.00 30
20260502123134 52 235 0.0 0.0 0.00 0.00 0.00 32
20260502122632 52 235 0.0 0.0 0.00 0.00 0.00 33
20260502122134 52 235 0.0 0.0 0.00 0.00 0.00 34
20260502121637 53 235 0.0 0.0 0.00 0.00 0.00 35
20260502121139 53 235 0.0 0.0 0.00 0.00 0.00 36
20260502120642 0 0.0 0.0 0.00 0.00 0.00
20260502120144 53 235 0.0 0.0 0.00 0.00 0.00 37
20260502115643 53 235 0.0 0.0 0.00 0.00 0.00 38
20260502115145 53 235 0.0 0.0 0.00 0.00 0.00 38
20260502114648 52 235 0.0 0.0 0.00 0.00 0.00 40
20260502114150 53 235 0.0 0.0 0.00 0.00 0.00 41
20260502113652 53 235 0.0 0.0 0.00 0.00 0.00 41
20260502113154 53 235 0.0 0.0 0.00 0.00 0.00 43
20260502112653 53 235 0.0 0.0 0.00 0.00 0.00 44
20260502112156 53 235 0.0 0.0 0.00 0.00 0.00 44
20260502111658 53 235 0.0 0.0 0.00 0.00 0.00 45
20260502111200 53 235 0.0 0.0 0.00 0.00 0.00 46
20260502110703 52 235 0.0 0.0 0.00 0.00 0.00 47
20260502110205 52 235 0.0 0.0 0.00 0.00 0.00 47
20260502105704 53 235 0.0 0.0 0.00 0.00 0.00 47
20260502105206 53 235 0.0 0.0 0.00 0.00 0.00 47
20260502104709 52 235 0.0 0.0 0.00 0.00 0.00 47
20260502104211 53 235 0.0 0.0 0.00 0.00 0.00 47
20260502103713 53 235 0.0 0.0 0.00 0.00 0.00 46
20260502103216 53 235 0.0 0.0 0.00 0.00 0.00 45
20260502102715 53 235 0.0 0.0 0.00 0.00 0.00 47
20260502102217 54 235 0.0 0.0 0.00 0.00 0.00 48
20260502101719 54 235 0.0 0.0 0.00 0.00 0.00 47
20260502100724 54 235 0.0 0.0 0.00 0.00 0.00 49
20260502100226 53 235 0.0 0.0 0.00 0.00 0.00 51
20260502091243 53 235 0.0 0.0 0.00 0.00 0.00 55
20260502090745 53 235 0.0 0.0 0.00 0.00 0.00 55
20260502090248 53 235 0.0 0.0 0.00 0.00 0.00 56
20260502071325 57 235 0.0 0.0 0.00 0.00 0.00 62
20260502070828 57 235 0.0 0.0 0.00 0.00 0.00 63
20260502070330 57 235 0.0 0.0 0.00 0.00 0.00 64
20260502065829 57 235 0.0 0.0 0.00 0.00 0.00 64
20260502065331 57 235 0.0 0.0 0.00 0.00 0.00 64
20260502064834 57 235 0.0 0.0 0.00 0.00 0.00 64
20260502064336 57 235 0.0 0.0 0.00 0.00 0.00 66
20260502063838 57 235 0.0 0.0 0.00 0.00 0.00 68
20260502063341 57 235 0.0 0.0 0.00 0.00 0.00 70
20260502062840 57 235 0.0 0.0 0.00 0.00 0.00 71
20260502062342 57 235 0.0 0.0 0.00 0.00 0.00 71
20260502061844 57 235 0.0 0.0 0.00 0.00 0.00 72
20260502061347 57 235 0.0 0.0 0.00 0.00 0.00 72
20260502060849 57 235 0.0 0.0 0.00 0.00 0.00 72
20260502060351 57 235 0.0 0.0 0.00 0.00 0.00 71
20260502055851 57 235 0.0 0.0 0.00 0.00 0.00 71
20260502055353 57 235 0.0 0.0 0.00 0.00 0.00 70
20260502054357 58 235 0.0 0.0 0.00 0.00 0.00 69
20260502053402 58 179 6.0 0.0 0.00 0.00 0.00 69
20260502052901 58 204 11.0 12.0 0.00 0.00 0.00 69
20260502052403 58 205 12.0 9.0 0.00 0.00 0.00 69
20260502051905 58 179 9.0 11.0 0.00 0.00 0.00 68
20260502051408 58 214 12.0 14.0 0.00 0.00 0.00 67
20260502050910 58 217 11.0 16.0 0.00 0.00 0.00 67
20260502050412 58 224 15.0 7.0 0.00 0.00 0.00 66
20260502045912 58 198 11.0 14.0 0.00 0.00 0.00 67
20260502045414 58 231 15.0 15.0 0.00 0.00 0.00 66
20260502044916 59 235 12.0 15.0 0.00 0.00 0.00 66
20260502044418 59 224 14.0 14.0 0.00 0.00 0.00 65
20260502043959 59 218 13.0 12.0 0.00 0.00 0.00 64
20260502043921 59 218 13.0 12.0 0.00 0.00 0.00 64
20260502043424 59 218 14.0 13.0 0.00 0.00 0.00 63
20260502042922 59 229 15.0 9.0 0.00 0.00 0.00 63
20260502042424 59 215 13.0 12.0 0.00 0.00 0.00 62
20260502041926 59 229 16.0 15.0 0.00 0.00 0.00 62
20260502041429 59 219 15.0 17.0 0.00 0.00 0.00 60
20260502040931 60 210 15.0 18.0 0.00 0.00 0.00 59
20260502040433 60 224 14.0 10.0 0.00 0.00 0.00 58
20260502035932 60 228 14.0 20.0 0.00 0.00 0.00 57
20260502035435 60 238 14.0 13.0 0.00 0.00 0.00 56
20260502034439 60 221 14.0 18.0 0.00 0.00 0.00 55
20260502033942 60 226 14.0 10.0 0.00 0.00 0.00 54
20260502033444 61 198 13.0 17.0 0.00 0.00 0.00 53
20260502032943 61 224 14.0 14.0 0.00 0.00 0.00 53
20260502032445 61 218 13.0 16.0 0.00 0.00 0.00 52
20260502031947 61 217 9.0 7.0 0.00 0.00 0.00 51
20260502031450 61 221 13.0 14.0 0.00 0.00 0.00 49
20260502030952 62 217 15.0 16.0 0.00 0.00 0.00 49
20260502030454 62 222 16.0 12.0 0.00 0.00 0.00 47
20260502025953 62 226 11.0 12.0 0.00 0.00 0.00 46
20260502025456 62 208 11.0 10.0 0.00 0.00 0.00 45
20260502024958 63 224 10.0 9.0 0.00 0.00 0.00 44
20260502024500 63 208 9.0 14.0 0.00 0.00 0.00 43
20260502024003 63 218 10.0 17.0 0.00 0.00 0.00 42
20260502023505 64 231 9.0 6.0 0.00 0.00 0.00 40
20260502023004 64 211 8.0 5.0 0.00 0.00 0.00 39
20260502022506 65 240 11.0 6.0 0.00 0.00 0.00 38
20260502022008 65 191 7.0 9.0 0.00 0.00 0.00 37
20260502021511 66 214 7.0 7.0 0.00 0.00 0.00 35
20260502021013 66 222 8.0 10.0 0.00 0.00 0.00 33
20260502020515 67 225 8.0 6.0 0.00 0.00 0.00 32
20260502020014 67 194 7.0 11.0 0.00 0.00 0.00 31
20260502015549 68 218 9.0 7.0 0.00 0.00 0.00 30
20260502015517 68 218 9.0 7.0 0.00 0.00 0.00 30
20260502015019 69 225 9.0 11.0 0.00 0.00 0.00 27
20260502014521 69 212 8.0 8.0 0.00 0.00 0.00 26
20260502014023 70 219 13.0 14.0 0.00 0.00 0.00 25
20260502014014 70 226 7.0 3.0 0.00 0.00 0.00 22
20260502013526 70 226 7.0 3.0 0.00 0.00 0.00 22
20260502013025 71 224 11.0 8.0 0.00 0.00 0.00 22
20260502012527 72 222 7.0 6.0 0.00 0.00 0.00 20
20260502012029 72 256 4.0 4.0 0.00 0.00 0.00 18
20260502011531 73 197 3.0 0.0 0.00 0.00 0.00 17
20260502011034 73 208 9.0 11.0 0.00 0.00 0.00 17
20260502010536 73 181 7.0 0.0 0.00 0.00 0.00 16
20260502010035 74 236 0.0 0.0 0.00 0.00 0.00 16
20260502005537 74 236 2.0 0.0 0.00 0.00 0.00 15
20260502005040 75 231 0.0 8.0 0.00 0.00 0.00 15
20260502004542 75 210 3.0 0.0 0.00 0.00 0.00 13
20260502004044 75 242 2.0 0.0 0.00 0.00 0.00 12
20260502003546 76 191 0.0 0.0 0.00 0.00 0.00 12
20260502003045 76 191 2.0 0.0 0.00 0.00 0.00 10
20260502002548 76 197 0.0 0.0 0.00 0.00 0.00 10
20260502002050 77 212 4.0 0.0 0.00 0.00 0.00 9
20260502001552 77 243 0.0 0.0 0.00 0.00 0.00 8
20260502001055 77 243 8.0 0.0 0.00 0.00 0.00 7
20260502000557 77 215 2.0 0.0 0.00 0.00 0.00 8
20260502000056 78 236 0.0 0.0 0.00 0.00 0.00 6
20260501235558 78 232 2.0 0.0 0.00 0.00 0.00 6
20260501235100 78 198 1.0 0.0 0.00 0.00 0.00 6
20260501234603 78 239 8.0 0.0 0.00 0.00 0.00 6
20260501234105 79 205 0.0 7.0 0.00 0.00 0.00 6
20260501233607 79 169 7.0 6.0 0.00 0.00 0.00 6
20260501233107 79 243 3.0 0.0 0.00 0.00 0.00 6
20260501232609 79 226 0.0 6.0 0.00 0.00 0.00 6
20260501232111 79 205 4.0 0.0 0.00 0.00 0.00 5
20260501231613 79 229 7.0 0.0 0.00 0.00 0.00 5
20260501231115 79 188 0.0 0.0 0.00 0.00 0.00 6
20260501230618 79 228 6.0 7.0 0.00 0.00 0.00 6
20260501230117 79 267 11.0 13.0 0.00 0.00 0.00 5
20260501225619 79 212 9.0 12.0 0.00 0.00 0.00 5
20260501225121 80 249 2.0 10.0 0.00 0.00 0.00 5
20260501224623 80 277 0.0 0.0 0.00 0.00 0.00 5
20260501224126 80 270 8.0 13.0 0.00 0.00 0.00 5
20260501223628 80 249 11.0 12.0 0.00 0.00 0.00 5
20260501223127 80 263 11.0 6.0 0.00 0.00 0.00 5
20260501222629 80 217 8.0 0.0 0.00 0.00 0.00 5
20260501222132 80 233 2.0 6.0 0.00 0.00 0.00 5
20260501221634 81 203 3.0 0.0 0.00 0.00 0.00 5
20260501221137 81 219 0.0 0.0 0.00 0.00 0.00 5
20260501220638 81 219 0.0 0.0 0.00 0.00 0.00 5
20260501220137 82 226 6.0 7.0 0.00 0.00 0.00 4
20260501215640 82 34 0.0 0.0 0.00 0.00 0.00 4
20260501215142 82 34 0.0 0.0 0.00 0.00 0.00 3
20260501214644 83 34 0.0 0.0 0.00 0.00 0.00 3
20260501214148 83 8 0.0 0.0 0.00 0.00 0.00 3
20260501213650 83 8 0.0 0.0 0.00 0.00 0.00 3
20260501213148 83 8 0.0 0.0 0.00 0.00 0.00 3
20260501212650 82 8 0.0 0.0 0.00 0.00 0.00 3
20260501212152 82 8 0.0 0.0 0.00 0.00 0.00 4
20260501211655 81 8 0.0 0.0 0.00 0.00 0.00 4
20260501211157 81 8 0.0 0.0 0.00 0.00 0.00 4
20260501210659 81 8 0.0 0.0 0.00 0.00 0.00 4
20260501210158 81 8 0.0 0.0 0.00 0.00 0.00 3
20260501205701 82 8 0.0 0.0 0.00 0.00 0.00 3
20260501205204 82 8 0.0 0.0 0.00 0.00 0.00 4
20260501204706 81 8 0.0 0.0 0.00 0.00 0.00 4
20260501204207 81 8 0.0 0.0 0.00 0.00 0.00 4
20260501203710 80 8 0.0 0.0 0.00 0.00 0.00 4
20260501203210 80 8 0.0 0.0 0.00 0.00 0.00 4
20260501202711 80 8 0.0 0.0 0.00 0.00 0.00 4
20260501202213 81 8 0.0 0.0 0.00 0.00 0.00 4
20260501201716 81 8 0.0 0.0 0.00 0.00 0.00 4
20260501201218 81 8 0.0 0.0 0.00 0.00 0.00 4
20260501200721 80 8 0.0 0.0 0.00 0.00 0.00 4
20260501200219 80 8 0.0 0.0 0.00 0.00 0.00 4
20260501195722 80 8 0.0 0.0 0.00 0.00 0.00 4
20260501195224 79 8 0.0 0.0 0.00 0.00 0.00 4
20260501194726 79 8 0.0 0.0 0.00 0.00 0.00 4
20260501194229 79 8 0.0 0.0 0.00 0.00 0.00 5
20260501193733 79 8 0.0 0.0 0.00 0.00 0.00 4
20260501193230 79 8 0.0 0.0 0.00 0.00 0.00 4